Weather History for Ahmedabad, India

Change the Weather History Date:

Tuesday, August 27, 2013

  Actual Average Record
Temperature  
Mean Temperature 84 °F -  
Max Temperature 92 °F 89 °F 95 °F (2005)
Min Temperature 77 °F 76 °F 75 °F (1996)
Cooling Degree Days 20    
Growing Degree Days 34 (Base 50)    
Moisture  
Dew Point 75 °F    
Average Humidity 76    
Maximum Humidity 94    
Minimum Humidity 46    
Precipitation  
Precipitation 0.00 in 0.14 in - ()
Sea Level Pressure  
Sea Level Pressure 29.66 in    
Wind  
Wind Speed 6 mph ()    
Max Wind Speed 13 mph    
Max Gust Speed -    
Visibility 2.6 miles    
Events      
Averages and records for this station are not official NWS values.
T = Trace of Precipitation, MM = Missing Value Source: Averaged Metar Reports

Daily Weather History Graph

Daily Weather History Graph

Search for Another Location

Airport:

Trip Planner

Search our weather history database for the weather conditions in past years. The results will help you decide how hot, cold, wet, or windy it might be!

Date:

Astronomy

Aug. 27, 2013 Rise Set
Actual Time 6:20 AM IST 7:01 PM IST
Civil Twilight 5:57 AM IST 7:24 PM IST
Nautical Twilight 5:30 AM IST 7:51 PM IST
Astronomical Twilight 5:02 AM IST 8:18 PM IST
Moon 11:25 PM IST (8/27) 12:04 PM IST (8/27)
Length of Visible Light 13h 27m
Length of Day
12h 41m
Waning Gibbous, 61% of the Moon is Illuminated
Aug 27
Waning Gibbous
Aug 28
Last Quarter
Sep 5
New
Sep 12
First Quarter
Sep 19
Full

Hourly Weather History & Observations

Time (IST) Temp. Heat Index Dew Point Humidity Pressure Visibility Wind Dir Wind Speed Gust Speed Precip Events Conditions
12:10 AM 82.4 °F 90.9 °F 77.0 °F 84% 29.65 in 2.5 mi SSW 4.6 mph - N/A   Haze
12:40 AM 82.4 °F 90.9 °F 77.0 °F 84% 29.65 in 2.5 mi SW 3.5 mph - N/A   Haze
1:10 AM 80.6 °F 88.1 °F 78.8 °F 94% 29.65 in 2.5 mi SW 2.3 mph - N/A   Haze
1:40 AM 80.6 °F 88.1 °F 78.8 °F 94% 29.65 in 2.5 mi WSW 5.8 mph - N/A   Haze
2:10 AM 80.6 °F 86.2 °F 75.2 °F 84% 29.65 in 2.5 mi West 8.1 mph - N/A   Haze
2:30 AM 81 °F - 74 °F 73% 29.63 in 1 mi WSW 5.8 mph - -   Haze
2:40 AM 80.6 °F 86.2 °F 75.2 °F 84% 29.62 in 2.5 mi West 6.9 mph - N/A   Haze
3:10 AM 80.6 °F 86.2 °F 75.2 °F 84% 29.62 in 2.5 mi West 5.8 mph - N/A   Haze
3:40 AM 80.6 °F 86.2 °F 75.2 °F 84% 29.62 in 2.5 mi West 4.6 mph - N/A   Haze
4:10 AM 80.6 °F 86.2 °F 75.2 °F 84% 29.65 in 2.5 mi West 6.9 mph - N/A   Haze
4:40 AM 78.8 °F - 73.4 °F 83% 29.65 in 2.5 mi West 9.2 mph - N/A   Haze
5:10 AM 78.8 °F - 73.4 °F 83% 29.65 in 2.5 mi West 10.4 mph - N/A   Haze
5:30 AM 79 °F - 72 °F 75% 29.65 in 1 mi SW 3.5 mph - -   Haze
5:40 AM 78.8 °F - 73.4 °F 83% 29.65 in 2.5 mi WSW 9.2 mph - N/A   Haze
6:10 AM 77.0 °F - 73.4 °F 89% 29.65 in 2.5 mi WSW 8.1 mph - N/A   Haze
6:40 AM 77.0 °F - 73.4 °F 89% 29.68 in 2.5 mi SW 4.6 mph - N/A   Haze
7:10 AM 77.0 °F - 73.4 °F 89% 29.68 in 2.5 mi SW 8.1 mph - N/A   Haze
7:40 AM 78.8 °F - 75.2 °F 89% 29.71 in 2.5 mi SW 6.9 mph - N/A   Haze
8:10 AM 78.8 °F - 75.2 °F 89% 29.71 in 2.2 mi SW 8.1 mph - N/A   Haze
8:40 AM 80.6 °F 86.2 °F 75.2 °F 84% 29.71 in 2.2 mi WSW 10.4 mph - N/A   Haze
9:10 AM 80.6 °F 86.2 °F 75.2 °F 84% 29.71 in 2.2 mi WSW 10.4 mph - N/A   Haze
10:10 AM 82.4 °F 89.5 °F 75.2 °F 79% 29.71 in 2.5 mi WSW 9.2 mph - N/A   Haze
10:40 AM 84.2 °F 92.3 °F 75.2 °F 74% 29.71 in 2.5 mi WSW 11.5 mph - N/A   Haze
11:10 AM 86.0 °F 95.1 °F 75.2 °F 70% 29.71 in 2.5 mi WSW 9.2 mph - N/A   Haze
11:30 AM 86 °F - 74 °F 60% 29.71 in 2 mi SW 4.6 mph - -   Haze
11:40 AM 86.0 °F 95.1 °F 75.2 °F 70% 29.71 in 2.5 mi WSW 8.1 mph - N/A   Haze
12:40 PM 87.8 °F 99.7 °F 77.0 °F 70% 29.68 in 2.5 mi WSW 8.1 mph - N/A   Haze
1:40 PM 89.6 °F 102.2 °F 77.0 °F 66% 29.68 in 3.1 mi SW 10.4 mph - N/A   Haze
2:10 PM 91.4 °F 102.5 °F 75.2 °F 59% 29.65 in 3.1 mi SW 10.4 mph - N/A   Haze
2:30 PM 90 °F - 73 °F 49% 29.66 in 2 mi SW 6.9 mph - -   Mostly Cloudy
2:40 PM 91.4 °F 102.5 °F 75.2 °F 59% 29.65 in 3.7 mi WSW 9.2 mph - N/A   Scattered Clouds
3:10 PM 91.4 °F 105.1 °F 77.0 °F 63% 29.62 in 3.7 mi WSW 11.5 mph - N/A   Scattered Clouds
3:40 PM 91.4 °F 100.1 °F 73.4 °F 55% 29.62 in 3.7 mi SW 6.9 mph - N/A   Scattered Clouds
4:10 PM 91.4 °F 102.5 °F 75.2 °F 59% 29.62 in 3.7 mi West 6.9 mph - N/A   Scattered Clouds
4:40 PM 91.4 °F 102.5 °F 75.2 °F 59% 29.62 in 3.7 mi WSW 6.9 mph - N/A   Scattered Clouds
5:10 PM 91.4 °F 100.1 °F 73.4 °F 55% 29.62 in 3.7 mi WSW 6.9 mph - N/A   Scattered Clouds
5:30 PM 91 °F - 73 °F 46% 29.63 in 2 mi SW 4.6 mph - -   Partly Cloudy
5:40 PM 89.6 °F 98.2 °F 73.4 °F 59% 29.62 in 3.7 mi SW 5.8 mph - N/A   Scattered Clouds
7:40 PM 87.8 °F 99.7 °F 77.0 °F 70% 29.65 in 2.5 mi South 4.6 mph - N/A   Smoke
8:10 PM 86.0 °F 96.9 °F 77.0 °F 74% 29.65 in 2.5 mi South 5.8 mph - N/A   Smoke
8:30 PM 84 °F - 77 °F 74% 29.66 in 2 mi SW 11.2 mph - -   Partly Cloudy
8:40 PM 84.2 °F 94.1 °F 77.0 °F 79% 29.65 in 2.5 mi SSW 8.1 mph - N/A   Haze
9:10 PM 84.2 °F 94.1 °F 77.0 °F 79% 29.68 in 2.5 mi South 9.2 mph - N/A   Haze
9:40 PM 82.4 °F 90.9 °F 77.0 °F 84% 29.68 in 2.5 mi South 9.2 mph - N/A   Haze
10:10 PM 82.4 °F 90.9 °F 77.0 °F 84% 29.68 in 2.5 mi South 8.1 mph - N/A   Haze
10:40 PM 82.4 °F 90.9 °F 77.0 °F 84% 29.71 in 2.5 mi South 8.1 mph - N/A   Haze
11:10 PM 82.4 °F 90.9 °F 77.0 °F 84% 29.68 in 2.5 mi South 6.9 mph - N/A   Haze
11:30 PM 81 °F - 77 °F 83% 29.69 in 2 mi South 13.4 mph - -   Haze
11:40 PM 82.4 °F 90.9 °F 77.0 °F 84% 29.68 in 2.5 mi South 5.8 mph - N/A   Haze